Winfield, KS

4:37 AM CDT on September 16, 2019 (GMT -0500)
Strother

Weather History for KWLD - August, 2019

Change the Weather History Date:

Sunday, August 18, 2019

  Actual Average Record
Temperature  
Mean Temperature 78 °F -  
Max Temperature 90 °F 90 °F 106 °F (2006)
Min Temperature 68 °F 67 °F 62 °F (2013)
Cooling Degree Days 14    
Growing Degree Days 28 (Base 50)    
Moisture  
Dew Point 67 °F    
Average Humidity 70    
Maximum Humidity 90    
Minimum Humidity 53    
Precipitation  
Precipitation 0.03 in - - ()
Sea Level Pressure  
Sea Level Pressure 29.86 in    
Wind  
Wind Speed 10 mph ()    
Max Wind Speed 22 mph    
Max Gust Speed 40 mph    
Visibility 9.9 miles    
Events Rain , Thunderstorm    
Averages and records for this station are not official NWS values.
T = Trace of Precipitation, MM = Missing Value Source: Averaged Metar Reports

Daily Weather History Graph

Daily Weather History Graph

Search for Another Location

Airport or City:

Astronomy

Aug. 18, 2019 Rise Set
Actual Time 6:47 AM CDT 8:16 PM CDT
Civil Twilight 6:19 AM CDT 8:43 PM CDT
Nautical Twilight 5:46 AM CDT 9:16 PM CDT
Astronomical Twilight 5:11 AM CDT 9:51 PM CDT
Moon 10:15 PM CDT (8/18) 9:30 AM CDT (8/18)
Length of Visible Light 14h 24m
Length of Day
13h 29m
Waning Gibbous, 91% of the Moon is Illuminated
Aug 18
Waning Gibbous
Aug 23
Last Quarter
Aug 30
New
Sep 5
First Quarter
Sep 13
Full

Hourly Weather History & Observations

Time (CDT) Temp. Heat Index Dew Point Humidity Pressure Visibility Wind Dir Wind Speed Gust Speed Precip Events Conditions
12:54 AM 81.0 °F 84.1 °F 69.1 °F 67% 29.73 in 10.0 mi South 16.1 mph - N/A   Clear
1:54 AM 80.1 °F 83.2 °F 70.0 °F 71% 29.83 in 10.0 mi North 15.0 mph 23.0 mph N/A   Scattered Clouds
2:54 AM 73.0 °F - 62.1 °F 68% 29.86 in 10.0 mi NNE 19.6 mph 27.6 mph N/A   Mostly Cloudy
3:54 AM 75.9 °F - 59.0 °F 56% 29.86 in 10.0 mi ENE 12.7 mph 21.9 mph N/A   Overcast
4:54 AM 73.9 °F - 60.1 °F 62% 29.85 in 10.0 mi East 5.8 mph - N/A   Mostly Cloudy
5:54 AM 68.0 °F - 64.9 °F 90% 29.81 in 10.0 mi SE 3.5 mph - 0.00 in   Clear
6:51 AM 69.8 °F - 64.4 °F 83% 29.95 in 10.0 mi North 21.9 mph 40.3 mph N/A Thunderstorm Overcast
6:54 AM 71.1 °F - 63.0 °F 75% 29.91 in 10.0 mi North 17.3 mph 40.3 mph N/A Thunderstorm Overcast
7:07 AM 70.0 °F - 63.0 °F 78% 29.95 in 8.0 mi NE 6.9 mph - 0.02 in Rain Light Rain
7:54 AM 69.1 °F - 62.1 °F 78% 29.86 in 10.0 mi SE 6.9 mph - 0.02 in Rain Light Rain
8:11 AM 69.1 °F - 64.0 °F 84% 29.89 in 10.0 mi SSE 9.2 mph - 0.00 in Thunderstorm Thunderstorm
8:26 AM 69.1 °F - 64.0 °F 84% 29.92 in 10.0 mi South 8.1 mph - 0.01 in Thunderstorm Scattered Clouds
8:40 AM 69.1 °F - 64.0 °F 84% 29.93 in 10.0 mi South 6.9 mph - 0.01 in   Partly Cloudy
8:54 AM 69.1 °F - 64.0 °F 84% 29.88 in 10.0 mi ESE 8.1 mph - 0.01 in   Scattered Clouds
9:54 AM 75.0 °F - 64.0 °F 69% 29.87 in 10.0 mi SE 12.7 mph 19.6 mph N/A   Clear
10:54 AM 80.1 °F 81.2 °F 62.1 °F 54% 29.84 in 10.0 mi ESE 16.1 mph 26.5 mph N/A   Clear
11:54 AM 82.0 °F 83.8 °F 64.9 °F 56% 29.85 in 10.0 mi SSE 15.0 mph 24.2 mph N/A   Clear
12:54 PM 84.0 °F 87.0 °F 68.0 °F 58% 29.86 in 10.0 mi SSE 9.2 mph - N/A   Clear
1:54 PM 87.1 °F 92.0 °F 70.0 °F 57% 29.85 in 10.0 mi South 8.1 mph - N/A   Clear
2:54 PM 88.0 °F 93.8 °F 71.1 °F 57% 29.84 in 10.0 mi South 6.9 mph - N/A   Clear
3:54 PM 89.1 °F 94.1 °F 70.0 °F 53% 29.83 in 10.0 mi SSW 8.1 mph - N/A   Partly Cloudy
4:54 PM 89.1 °F 97.0 °F 73.0 °F 59% 29.82 in 10.0 mi Variable 3.5 mph - N/A   Clear
5:54 PM 88.0 °F 95.6 °F 73.0 °F 61% 29.83 in 10.0 mi SE 5.8 mph - N/A   Partly Cloudy
6:54 PM 87.1 °F 94.5 °F 73.0 °F 63% 29.83 in 10.0 mi SSE 4.6 mph - N/A   Clear
7:54 PM 86.0 °F 93.0 °F 73.0 °F 65% 29.83 in 10.0 mi ESE 4.6 mph - N/A   Clear
8:54 PM 84.0 °F 91.2 °F 73.9 °F 72% 29.85 in 10.0 mi East 4.6 mph - N/A   Mostly Cloudy
9:54 PM 82.0 °F 88.6 °F 75.0 °F 79% 29.87 in 10.0 mi East 6.9 mph - N/A   Scattered Clouds
10:54 PM 81.0 °F 86.7 °F 75.0 °F 82% 29.88 in 10.0 mi East 5.8 mph - N/A   Scattered Clouds
11:54 PM 80.1 °F 85.1 °F 75.0 °F 85% 29.89 in 10.0 mi ESE 5.8 mph - N/A   Mostly Cloudy